Year,Month,Day,Hour,Minute,Value (Times are PST for windspeed in km/hr)
2010,08,30,00,00,0.00
2010,08,30,00,01,0.00
2010,08,30,00,02,0.00
2010,08,30,00,03,0.00
2010,08,30,00,04,0.00
2010,08,30,00,05,0.00
2010,08,30,00,06,0.00
2010,08,30,00,07,0.70
2010,08,30,00,08,3.10
2010,08,30,00,09,2.10
2010,08,30,00,10,0.80
2010,08,30,00,11,0.60
2010,08,30,00,12,1.60
2010,08,30,00,13,3.60
2010,08,30,00,14,4.10
2010,08,30,00,15,3.20
2010,08,30,00,16,1.60
2010,08,30,00,17,1.90
2010,08,30,00,18,1.30
2010,08,30,00,19,0.70
2010,08,30,00,20,0.90
2010,08,30,00,21,1.20
2010,08,30,00,22,0.90
2010,08,30,00,23,0.90
2010,08,30,00,24,1.00
2010,08,30,00,25,0.40
2010,08,30,00,26,0.90
2010,08,30,00,27,1.60
2010,08,30,00,28,0.60
2010,08,30,00,29,1.70
2010,08,30,00,30,1.40
2010,08,30,00,31,2.00
2010,08,30,00,32,1.70
2010,08,30,00,33,0.10
2010,08,30,00,34,0.00
2010,08,30,00,35,0.10
2010,08,30,00,36,0.00
2010,08,30,00,37,0.00
2010,08,30,00,38,0.60
2010,08,30,00,39,0.30
2010,08,30,00,40,0.70
2010,08,30,00,41,0.20
2010,08,30,00,42,1.00
2010,08,30,00,43,2.50
2010,08,30,00,44,2.90
2010,08,30,00,45,3.20
2010,08,30,00,46,2.50
2010,08,30,00,47,1.50
2010,08,30,00,48,1.80
2010,08,30,00,49,1.20
2010,08,30,00,50,1.20
2010,08,30,00,51,0.50
2010,08,30,00,52,1.40
2010,08,30,00,53,0.20
2010,08,30,00,54,0.30
2010,08,30,00,55,0.90
2010,08,30,00,56,0.70
2010,08,30,00,57,0.10
2010,08,30,00,58,0.00
2010,08,30,00,59,0.20
2010,08,30,01,00,1.00
2010,08,30,01,01,0.80
2010,08,30,01,02,0.50
2010,08,30,01,03,1.50
2010,08,30,01,04,2.30
2010,08,30,01,05,2.50
2010,08,30,01,06,2.80
2010,08,30,01,07,1.60
2010,08,30,01,08,1.70
2010,08,30,01,09,1.90
2010,08,30,01,10,1.60
2010,08,30,01,11,1.40
2010,08,30,01,12,1.60
2010,08,30,01,13,1.80
2010,08,30,01,14,1.70
2010,08,30,01,15,1.70
2010,08,30,01,16,1.50
2010,08,30,01,17,0.60
2010,08,30,01,18,0.60
2010,08,30,01,19,0.50
2010,08,30,01,20,1.00
2010,08,30,01,21,0.30
2010,08,30,01,22,0.90
2010,08,30,01,23,1.10
2010,08,30,01,24,1.70
2010,08,30,01,25,1.70
2010,08,30,01,26,2.10
2010,08,30,01,27,1.70
2010,08,30,01,28,1.20
2010,08,30,01,29,1.40
2010,08,30,01,30,1.20
2010,08,30,01,31,1.60
2010,08,30,01,32,1.60
2010,08,30,01,33,2.00
2010,08,30,01,34,1.70
2010,08,30,01,35,1.90
2010,08,30,01,36,2.60
2010,08,30,01,37,1.50
2010,08,30,01,38,0.20
2010,08,30,01,39,0.30
2010,08,30,01,40,0.40
2010,08,30,01,41,0.50
2010,08,30,01,42,0.50
2010,08,30,01,43,0.90
2010,08,30,01,44,1.40
2010,08,30,01,45,2.40
2010,08,30,01,46,2.40
2010,08,30,01,47,2.70
2010,08,30,01,48,3.00
2010,08,30,01,49,3.00
2010,08,30,01,50,2.70
2010,08,30,01,51,2.50
2010,08,30,01,52,2.70
2010,08,30,01,53,2.30
2010,08,30,01,54,2.60
2010,08,30,01,55,2.00
2010,08,30,01,56,1.50
2010,08,30,01,57,1.40
2010,08,30,01,58,1.90
2010,08,30,01,59,1.90
2010,08,30,02,00,1.10
2010,08,30,02,01,1.40
2010,08,30,02,02,1.60
2010,08,30,02,03,2.50
2010,08,30,02,04,2.00
2010,08,30,02,05,2.30
2010,08,30,02,06,2.00
2010,08,30,02,07,1.60
2010,08,30,02,08,1.70
2010,08,30,02,09,2.10
2010,08,30,02,10,2.20
2010,08,30,02,11,1.90
2010,08,30,02,12,2.30
2010,08,30,02,13,3.00
2010,08,30,02,14,2.50
2010,08,30,02,15,1.80
2010,08,30,02,16,1.80
2010,08,30,02,17,2.60
2010,08,30,02,18,2.30
2010,08,30,02,19,2.60
2010,08,30,02,20,3.00
2010,08,30,02,21,1.90
2010,08,30,02,22,2.30
2010,08,30,02,23,2.20
2010,08,30,02,24,2.20
2010,08,30,02,25,2.60
2010,08,30,02,26,2.60
2010,08,30,02,27,3.50
2010,08,30,02,28,2.90
2010,08,30,02,29,2.70
2010,08,30,02,30,2.50
2010,08,30,02,31,2.70
2010,08,30,02,32,4.40
2010,08,30,02,33,3.50
2010,08,30,02,34,2.90
2010,08,30,02,35,3.00
2010,08,30,02,36,2.20
2010,08,30,02,37,0.80
2010,08,30,02,38,1.40
2010,08,30,02,39,2.30
2010,08,30,02,40,2.40
2010,08,30,02,41,2.00
2010,08,30,02,42,1.50
2010,08,30,02,43,2.10
2010,08,30,02,44,2.40
2010,08,30,02,45,2.60
2010,08,30,02,46,2.30
2010,08,30,02,47,2.30
2010,08,30,02,48,2.70
2010,08,30,02,49,1.50
2010,08,30,02,50,2.00
2010,08,30,02,51,2.00
2010,08,30,02,52,1.80
2010,08,30,02,53,2.20
2010,08,30,02,54,3.50
2010,08,30,02,55,3.40
2010,08,30,02,56,3.20
2010,08,30,02,57,0.90
2010,08,30,02,58,2.30
2010,08,30,02,59,2.40
2010,08,30,03,00,1.90
2010,08,30,03,01,3.20
2010,08,30,03,02,2.00
2010,08,30,03,03,1.90
2010,08,30,03,04,2.50
2010,08,30,03,05,2.30
2010,08,30,03,06,3.50
2010,08,30,03,07,2.30
2010,08,30,03,08,2.50
2010,08,30,03,09,3.80
2010,08,30,03,10,3.20
2010,08,30,03,11,3.70
2010,08,30,03,12,2.70
2010,08,30,03,13,1.90
2010,08,30,03,14,1.70
2010,08,30,03,15,2.40
2010,08,30,03,16,2.90
2010,08,30,03,17,2.40
2010,08,30,03,18,2.60
2010,08,30,03,19,2.40
2010,08,30,03,20,1.10
2010,08,30,03,21,1.60
2010,08,30,03,22,1.90
2010,08,30,03,23,2.20
2010,08,30,03,24,1.50
2010,08,30,03,25,3.00
2010,08,30,03,26,2.80
2010,08,30,03,27,2.10
2010,08,30,03,28,2.00
2010,08,30,03,29,2.10
2010,08,30,03,30,1.70
2010,08,30,03,31,2.70
2010,08,30,03,32,3.00
2010,08,30,03,33,2.90
2010,08,30,03,34,2.80
2010,08,30,03,35,2.90
2010,08,30,03,36,2.90
2010,08,30,03,37,2.80
2010,08,30,03,38,2.00
2010,08,30,03,39,3.00
2010,08,30,03,40,2.00
2010,08,30,03,41,2.50
2010,08,30,03,42,2.30
2010,08,30,03,43,1.80
2010,08,30,03,44,2.30
2010,08,30,03,45,1.90
2010,08,30,03,46,2.60
2010,08,30,03,47,2.20
2010,08,30,03,48,2.60
2010,08,30,03,49,2.70
2010,08,30,03,50,2.20
2010,08,30,03,51,1.50
2010,08,30,03,52,2.10
2010,08,30,03,53,1.50
2010,08,30,03,54,1.90
2010,08,30,03,55,2.50
2010,08,30,03,56,1.70
2010,08,30,03,57,2.30
2010,08,30,03,58,2.40
2010,08,30,03,59,2.90
2010,08,30,04,00,2.50
2010,08,30,04,01,2.00
2010,08,30,04,02,1.90
2010,08,30,04,03,1.90
2010,08,30,04,04,1.90
2010,08,30,04,05,2.00
2010,08,30,04,06,2.30
2010,08,30,04,07,1.80
2010,08,30,04,08,2.30
2010,08,30,04,09,2.20
2010,08,30,04,10,2.30
2010,08,30,04,11,2.50
2010,08,30,04,12,2.20
2010,08,30,04,13,2.00
2010,08,30,04,14,2.20
2010,08,30,04,15,1.60
2010,08,30,04,16,1.60
2010,08,30,04,17,1.30
2010,08,30,04,18,2.50
2010,08,30,04,19,2.30
2010,08,30,04,20,2.10
2010,08,30,04,21,2.00
2010,08,30,04,22,1.50
2010,08,30,04,23,2.00
2010,08,30,04,24,2.60
2010,08,30,04,25,2.00
2010,08,30,04,26,1.80
2010,08,30,04,27,2.50
2010,08,30,04,28,2.70
2010,08,30,04,29,2.10
2010,08,30,04,30,1.90
2010,08,30,04,31,2.20
2010,08,30,04,32,2.20
2010,08,30,04,33,2.40
2010,08,30,04,34,2.70
2010,08,30,04,35,2.20
2010,08,30,04,36,1.90
2010,08,30,04,37,2.00
2010,08,30,04,38,1.90
2010,08,30,04,39,1.50
2010,08,30,04,40,2.10
2010,08,30,04,41,1.20
2010,08,30,04,42,2.00
2010,08,30,04,43,0.90
2010,08,30,04,44,2.50
2010,08,30,04,45,2.00
2010,08,30,04,46,1.80
2010,08,30,04,47,2.70
2010,08,30,04,48,1.00
2010,08,30,04,49,1.80
2010,08,30,04,50,1.20
2010,08,30,04,51,2.60
2010,08,30,04,52,2.40
2010,08,30,04,53,1.60
2010,08,30,04,54,2.10
2010,08,30,04,55,2.60
2010,08,30,04,56,2.30
2010,08,30,04,57,2.50
2010,08,30,04,58,1.50
2010,08,30,04,59,1.90
2010,08,30,05,00,2.40
2010,08,30,05,01,1.50
2010,08,30,05,02,2.00
2010,08,30,05,03,1.80
2010,08,30,05,04,1.90
2010,08,30,05,05,1.80
2010,08,30,05,06,1.80
2010,08,30,05,07,1.80
2010,08,30,05,08,1.70
2010,08,30,05,09,1.30
2010,08,30,05,10,2.70
2010,08,30,05,11,0.70
2010,08,30,05,12,1.60
2010,08,30,05,13,1.00
2010,08,30,05,14,1.30
2010,08,30,05,15,0.50
2010,08,30,05,16,0.30
2010,08,30,05,17,0.00
2010,08,30,05,18,1.00
2010,08,30,05,19,1.40
2010,08,30,05,20,0.50
2010,08,30,05,21,1.10
2010,08,30,05,22,2.40
2010,08,30,05,23,0.70
2010,08,30,05,24,0.60
2010,08,30,05,25,1.60
2010,08,30,05,26,2.50
2010,08,30,05,27,1.40
2010,08,30,05,28,1.40
2010,08,30,05,29,2.20
2010,08,30,05,30,1.70
2010,08,30,05,31,3.00
2010,08,30,05,32,2.20
2010,08,30,05,33,1.90
2010,08,30,05,34,2.70
2010,08,30,05,35,2.00
2010,08,30,05,36,0.90
2010,08,30,05,37,0.00
2010,08,30,05,38,0.90
2010,08,30,05,39,1.40
2010,08,30,05,40,1.40
2010,08,30,05,41,1.90
2010,08,30,05,42,1.20
2010,08,30,05,43,2.20
2010,08,30,05,44,1.10
2010,08,30,05,45,2.40
2010,08,30,05,46,1.90
2010,08,30,05,47,0.00
2010,08,30,05,48,1.80
2010,08,30,05,49,3.90
2010,08,30,05,50,2.90
2010,08,30,05,51,1.50
2010,08,30,05,52,2.80
2010,08,30,05,53,2.30
2010,08,30,05,54,1.90
2010,08,30,05,55,1.80
2010,08,30,05,56,2.50
2010,08,30,05,57,2.80
2010,08,30,05,58,2.00
2010,08,30,05,59,2.10
2010,08,30,06,00,3.10
2010,08,30,06,01,3.00
2010,08,30,06,02,2.60
2010,08,30,06,03,2.50
2010,08,30,06,04,3.10
2010,08,30,06,05,2.50
2010,08,30,06,06,3.50
2010,08,30,06,07,3.10
2010,08,30,06,08,3.10
2010,08,30,06,09,0.60
2010,08,30,06,10,0.40
2010,08,30,06,11,1.00
2010,08,30,06,12,1.20
2010,08,30,06,13,0.30
2010,08,30,06,14,1.60
2010,08,30,06,15,1.00
2010,08,30,06,16,0.10
2010,08,30,06,17,0.50
2010,08,30,06,18,1.90
2010,08,30,06,19,1.80
2010,08,30,06,20,2.80
2010,08,30,06,21,2.10
2010,08,30,06,22,1.90
2010,08,30,06,23,1.50
2010,08,30,06,24,0.30
2010,08,30,06,25,0.70
2010,08,30,06,26,0.60
2010,08,30,06,27,1.50
2010,08,30,06,28,0.90
2010,08,30,06,29,0.90
2010,08,30,06,30,0.00
2010,08,30,06,31,1.20
2010,08,30,06,32,0.80
2010,08,30,06,33,1.50
2010,08,30,06,34,1.10
2010,08,30,06,35,1.40
2010,08,30,06,36,0.20
2010,08,30,06,37,0.30
2010,08,30,06,38,0.60
2010,08,30,06,39,1.80
2010,08,30,06,40,1.20
2010,08,30,06,41,0.20
2010,08,30,06,42,1.40
2010,08,30,06,43,0.70
2010,08,30,06,44,2.30
2010,08,30,06,45,1.30
2010,08,30,06,46,0.10
2010,08,30,06,47,0.50
2010,08,30,06,48,0.30
2010,08,30,06,49,2.00
2010,08,30,06,50,0.20
2010,08,30,06,51,0.00
2010,08,30,06,52,0.00
2010,08,30,06,53,0.30
2010,08,30,06,54,0.00
2010,08,30,06,55,0.00
2010,08,30,06,56,0.00
2010,08,30,06,57,1.60
2010,08,30,06,58,1.70
2010,08,30,06,59,0.00
2010,08,30,07,00,0.00
2010,08,30,07,01,0.00
2010,08,30,07,02,0.00
2010,08,30,07,03,0.00
2010,08,30,07,04,1.80
2010,08,30,07,05,0.30
2010,08,30,07,06,0.20
2010,08,30,07,07,0.20
2010,08,30,07,08,0.00
2010,08,30,07,09,0.00
2010,08,30,07,10,0.00
2010,08,30,07,11,0.10
2010,08,30,07,12,0.90
2010,08,30,07,13,3.20
2010,08,30,07,14,0.10
2010,08,30,07,15,0.00
2010,08,30,07,16,5.10
2010,08,30,07,17,0.10
2010,08,30,07,18,0.00
2010,08,30,07,19,0.00
2010,08,30,07,20,0.00
2010,08,30,07,21,1.00
2010,08,30,07,22,0.00
2010,08,30,07,23,2.10
2010,08,30,07,24,0.10
2010,08,30,07,25,0.00
2010,08,30,07,26,0.00
2010,08,30,07,27,1.10
2010,08,30,07,28,0.00
2010,08,30,07,29,0.30
2010,08,30,07,30,0.40
2010,08,30,07,31,0.00
2010,08,30,07,32,0.40
2010,08,30,07,33,0.00
2010,08,30,07,34,2.20
2010,08,30,07,35,2.00
2010,08,30,07,36,0.30
2010,08,30,07,37,0.50
2010,08,30,07,38,0.00
2010,08,30,07,39,1.00
2010,08,30,07,40,1.50
2010,08,30,07,41,3.40
2010,08,30,07,42,2.90
2010,08,30,07,43,0.40
2010,08,30,07,44,0.30
2010,08,30,07,45,0.00
2010,08,30,07,46,0.00
2010,08,30,07,47,0.10
2010,08,30,07,48,0.20
2010,08,30,07,49,1.30
2010,08,30,07,50,0.00
2010,08,30,07,51,0.00
2010,08,30,07,52,0.00
2010,08,30,07,53,0.10
2010,08,30,07,54,0.90
2010,08,30,07,55,1.20
2010,08,30,07,56,1.60
2010,08,30,07,57,0.00
2010,08,30,07,58,0.70
2010,08,30,07,59,4.70
2010,08,30,08,00,2.70
2010,08,30,08,01,1.70
2010,08,30,08,02,0.60
2010,08,30,08,03,2.00
2010,08,30,08,04,0.80
2010,08,30,08,05,0.00
2010,08,30,08,06,0.20
2010,08,30,08,07,0.00
2010,08,30,08,08,1.00
2010,08,30,08,09,2.60
2010,08,30,08,10,2.60
2010,08,30,08,11,2.70
2010,08,30,08,12,0.20
2010,08,30,08,13,2.50
2010,08,30,08,14,6.70
2010,08,30,08,15,2.70
2010,08,30,08,16,1.40
2010,08,30,08,17,1.50
2010,08,30,08,18,2.20
2010,08,30,08,19,5.60
2010,08,30,08,20,3.00
2010,08,30,08,21,1.90
2010,08,30,08,22,3.90
2010,08,30,08,23,2.40
2010,08,30,08,24,2.70
2010,08,30,08,25,6.80
2010,08,30,08,26,3.50
2010,08,30,08,27,0.80
2010,08,30,08,28,1.60
2010,08,30,08,29,3.30
2010,08,30,08,30,6.60
2010,08,30,08,31,5.50
2010,08,30,08,32,1.30
2010,08,30,08,33,1.90
2010,08,30,08,34,3.10
2010,08,30,08,35,7.00
2010,08,30,08,36,0.30
2010,08,30,08,37,0.70
2010,08,30,08,38,3.80
2010,08,30,08,39,3.70
2010,08,30,08,40,3.20
2010,08,30,08,41,4.10
2010,08,30,08,42,3.10
2010,08,30,08,43,4.40
2010,08,30,08,44,3.30
2010,08,30,08,45,6.40
2010,08,30,08,46,5.70
2010,08,30,08,47,3.00
2010,08,30,08,48,4.80
2010,08,30,08,49,5.80
2010,08,30,08,50,10.20
2010,08,30,08,51,6.10
2010,08,30,08,52,3.00
2010,08,30,08,53,2.00
2010,08,30,08,54,1.60
2010,08,30,08,55,2.20
2010,08,30,08,56,3.70
2010,08,30,08,57,6.10
2010,08,30,08,58,8.60
2010,08,30,08,59,5.60
2010,08,30,09,00,6.20
2010,08,30,09,01,6.00
2010,08,30,09,02,3.00
2010,08,30,09,03,3.40
2010,08,30,09,04,3.60
2010,08,30,09,05,2.20
2010,08,30,09,06,1.60
2010,08,30,09,07,1.90
2010,08,30,09,08,4.00
2010,08,30,09,09,3.80
2010,08,30,09,10,1.40
2010,08,30,09,11,1.10
2010,08,30,09,12,5.00
2010,08,30,09,13,5.60
2010,08,30,09,14,3.30
2010,08,30,09,15,2.50
2010,08,30,09,16,2.80
2010,08,30,09,17,2.50
2010,08,30,09,18,7.40
2010,08,30,09,19,3.40
2010,08,30,09,20,5.50
2010,08,30,09,21,6.40
2010,08,30,09,22,6.30
2010,08,30,09,23,4.80
2010,08,30,09,24,2.80
2010,08,30,09,25,2.50
2010,08,30,09,26,6.80
2010,08,30,09,27,2.30
2010,08,30,09,28,10.90
2010,08,30,09,29,8.10
2010,08,30,09,30,5.40
2010,08,30,09,31,1.10
2010,08,30,09,32,3.00
2010,08,30,09,33,7.70
2010,08,30,09,34,5.60
2010,08,30,09,35,5.40
2010,08,30,09,36,9.20
2010,08,30,09,37,8.20
2010,08,30,09,38,1.80
2010,08,30,09,39,0.70
2010,08,30,09,40,2.20
2010,08,30,09,41,0.90
2010,08,30,09,42,1.00
2010,08,30,09,43,3.80
2010,08,30,09,44,6.70
2010,08,30,09,45,4.30
2010,08,30,09,46,1.40
2010,08,30,09,47,2.50
2010,08,30,09,48,7.20
2010,08,30,09,49,3.40
2010,08,30,09,50,1.30
2010,08,30,09,51,5.20
2010,08,30,09,52,4.50
2010,08,30,09,53,5.10
2010,08,30,09,54,5.30
2010,08,30,09,55,2.10
2010,08,30,09,56,1.70
2010,08,30,09,57,2.10
2010,08,30,09,58,4.40
2010,08,30,09,59,7.60
2010,08,30,10,00,5.50
2010,08,30,10,01,6.40
2010,08,30,10,02,8.00
2010,08,30,10,03,4.60
2010,08,30,10,04,0.50
2010,08,30,10,05,0.70
2010,08,30,10,06,3.10
2010,08,30,10,07,1.90
2010,08,30,10,08,5.10
2010,08,30,10,09,3.50
2010,08,30,10,10,3.00
2010,08,30,10,11,4.00
2010,08,30,10,12,4.30
2010,08,30,10,13,2.30
2010,08,30,10,14,1.30
2010,08,30,10,15,3.10
2010,08,30,10,16,3.10
2010,08,30,10,17,1.10
2010,08,30,10,18,5.60
2010,08,30,10,19,1.80
2010,08,30,10,20,2.30
2010,08,30,10,21,4.80
2010,08,30,10,22,2.70
2010,08,30,10,23,0.90
2010,08,30,10,24,2.30
2010,08,30,10,25,1.50
2010,08,30,10,26,0.60
2010,08,30,10,27,1.40
2010,08,30,10,28,2.60
2010,08,30,10,29,5.80
2010,08,30,10,30,3.10
2010,08,30,10,31,6.70
2010,08,30,10,32,3.90
2010,08,30,10,33,3.10
2010,08,30,10,34,3.20
2010,08,30,10,35,3.40
2010,08,30,10,36,3.00
2010,08,30,10,37,2.20
2010,08,30,10,38,1.90
2010,08,30,10,39,2.20
2010,08,30,10,40,2.00
2010,08,30,10,41,6.80
2010,08,30,10,42,2.50
2010,08,30,10,43,2.00
2010,08,30,10,44,5.40
2010,08,30,10,45,5.30
2010,08,30,10,46,5.00
2010,08,30,10,47,3.10
2010,08,30,10,48,2.60
2010,08,30,10,49,4.70
2010,08,30,10,50,2.50
2010,08,30,10,51,2.50
2010,08,30,10,52,3.10
2010,08,30,10,53,4.00
2010,08,30,10,54,1.40
2010,08,30,10,55,3.50
2010,08,30,10,56,3.50
2010,08,30,10,57,0.90
2010,08,30,10,58,2.80
2010,08,30,10,59,3.30
2010,08,30,11,00,3.70
2010,08,30,11,01,2.80
2010,08,30,11,02,2.00
2010,08,30,11,03,4.30
2010,08,30,11,04,4.20
2010,08,30,11,05,4.60
2010,08,30,11,06,1.50
2010,08,30,11,07,1.60
2010,08,30,11,08,2.20
2010,08,30,11,09,1.70
2010,08,30,11,10,1.90
2010,08,30,11,11,3.60
2010,08,30,11,12,3.60
2010,08,30,11,13,3.10
2010,08,30,11,14,3.30
2010,08,30,11,15,4.00
2010,08,30,11,16,2.20
2010,08,30,11,17,4.30
2010,08,30,11,18,0.80
2010,08,30,11,19,2.70
2010,08,30,11,20,1.50
2010,08,30,11,21,4.00
2010,08,30,11,22,5.20
2010,08,30,11,23,3.00
2010,08,30,11,24,3.80
2010,08,30,11,25,4.70
2010,08,30,11,26,1.90
2010,08,30,11,27,2.20
2010,08,30,11,28,1.80
2010,08,30,11,29,1.80
2010,08,30,11,30,3.70
2010,08,30,11,31,3.60
2010,08,30,11,32,3.20
2010,08,30,11,33,1.70
2010,08,30,11,34,4.30
2010,08,30,11,35,3.10
2010,08,30,11,36,4.60
2010,08,30,11,37,4.00
2010,08,30,11,38,3.40
2010,08,30,11,39,5.90
2010,08,30,11,40,2.70
2010,08,30,11,41,3.90
2010,08,30,11,42,0.80
2010,08,30,11,43,1.90
2010,08,30,11,44,3.60
2010,08,30,11,45,3.40
2010,08,30,11,46,2.50
2010,08,30,11,47,1.30
2010,08,30,11,48,1.40
2010,08,30,11,49,1.90
2010,08,30,11,50,4.80
2010,08,30,11,51,1.90
2010,08,30,11,52,2.50
2010,08,30,11,53,2.80
2010,08,30,11,54,3.20
2010,08,30,11,55,3.60
2010,08,30,11,56,0.60
2010,08,30,11,57,3.10
2010,08,30,11,58,4.40
2010,08,30,11,59,3.60
2010,08,30,12,00,3.70
2010,08,30,12,01,6.80
2010,08,30,12,02,3.00
2010,08,30,12,03,1.90
2010,08,30,12,04,5.20
2010,08,30,12,05,1.60
2010,08,30,12,06,3.00
2010,08,30,12,07,3.30
2010,08,30,12,08,1.90
2010,08,30,12,09,2.40
2010,08,30,12,10,1.50
2010,08,30,12,11,1.90
2010,08,30,12,12,5.00
2010,08,30,12,13,2.30
2010,08,30,12,14,5.20
2010,08,30,12,15,1.10
2010,08,30,12,16,3.80
2010,08,30,12,17,4.70
2010,08,30,12,18,3.30
2010,08,30,12,19,0.80
2010,08,30,12,20,2.40
2010,08,30,12,21,4.60
2010,08,30,12,22,5.20
2010,08,30,12,23,5.00
2010,08,30,12,24,2.50
2010,08,30,12,25,3.60
2010,08,30,12,26,1.80
2010,08,30,12,27,3.00
2010,08,30,12,28,2.50
2010,08,30,12,29,1.90
2010,08,30,12,30,3.30
2010,08,30,12,31,2.20
2010,08,30,12,32,1.60
2010,08,30,12,33,1.40
2010,08,30,12,34,1.90
2010,08,30,12,35,0.60
2010,08,30,12,36,3.60
2010,08,30,12,37,4.70
2010,08,30,12,38,5.00
2010,08,30,12,39,6.00
2010,08,30,12,40,2.60
2010,08,30,12,41,1.30
2010,08,30,12,42,1.10
2010,08,30,12,43,3.60
2010,08,30,12,44,4.20
2010,08,30,12,45,5.40
2010,08,30,12,46,4.60
2010,08,30,12,47,3.50
2010,08,30,12,48,3.50
2010,08,30,12,49,2.50
2010,08,30,12,50,2.80
2010,08,30,12,51,4.80
2010,08,30,12,52,4.50
2010,08,30,12,53,5.20
2010,08,30,12,54,4.00
2010,08,30,12,55,2.10
2010,08,30,12,56,3.10
2010,08,30,12,57,4.90
2010,08,30,12,58,1.70
2010,08,30,12,59,3.10
2010,08,30,13,00,2.90
2010,08,30,13,01,4.90
2010,08,30,13,02,7.20
2010,08,30,13,03,6.10
2010,08,30,13,04,2.90
2010,08,30,13,05,0.90
2010,08,30,13,06,4.10
2010,08,30,13,07,5.00
2010,08,30,13,08,2.50
2010,08,30,13,09,5.00
2010,08,30,13,10,2.80
2010,08,30,13,11,7.80
2010,08,30,13,12,4.50
2010,08,30,13,13,4.70
2010,08,30,13,14,3.00
2010,08,30,13,15,6.60
2010,08,30,13,16,7.10
2010,08,30,13,17,6.70
2010,08,30,13,18,6.00
2010,08,30,13,19,5.20
2010,08,30,13,20,3.80
2010,08,30,13,21,5.50
2010,08,30,13,22,5.80
2010,08,30,13,23,0.30
2010,08,30,13,24,3.50
2010,08,30,13,25,4.00
2010,08,30,13,26,5.60
2010,08,30,13,27,3.40
2010,08,30,13,28,2.30
2010,08,30,13,29,5.50
2010,08,30,13,30,3.90
2010,08,30,13,31,3.40
2010,08,30,13,32,2.80
2010,08,30,13,33,4.90
2010,08,30,13,34,4.30
2010,08,30,13,35,7.30
2010,08,30,13,36,4.10
2010,08,30,13,37,5.70
2010,08,30,13,38,8.30
2010,08,30,13,39,5.60
2010,08,30,13,40,2.50
2010,08,30,13,41,3.90
2010,08,30,13,42,4.10
2010,08,30,13,43,5.90
2010,08,30,13,44,7.40
2010,08,30,13,45,8.80
2010,08,30,13,46,6.30
2010,08,30,13,47,8.60
2010,08,30,13,48,6.60
2010,08,30,13,49,6.10
2010,08,30,13,50,3.80
2010,08,30,13,51,4.70
2010,08,30,13,52,2.90
2010,08,30,13,53,4.40
2010,08,30,13,54,2.60
2010,08,30,13,55,3.30
2010,08,30,13,56,1.00
2010,08,30,13,57,2.60
2010,08,30,13,58,1.30
2010,08,30,13,59,4.70
2010,08,30,14,00,3.00
2010,08,30,14,01,2.30
2010,08,30,14,02,2.70
2010,08,30,14,03,1.50
2010,08,30,14,04,3.80
2010,08,30,14,05,2.00
2010,08,30,14,06,4.20
2010,08,30,14,07,1.90
2010,08,30,14,08,1.00
2010,08,30,14,09,3.60
2010,08,30,14,10,1.80
2010,08,30,14,11,1.40
2010,08,30,14,12,6.40
2010,08,30,14,13,1.90
2010,08,30,14,14,2.10
2010,08,30,14,15,4.00
2010,08,30,14,16,3.10
2010,08,30,14,17,3.70
2010,08,30,14,18,3.20
2010,08,30,14,19,5.90
2010,08,30,14,20,2.70
2010,08,30,14,21,4.10
2010,08,30,14,22,3.50
2010,08,30,14,23,2.40
2010,08,30,14,24,5.90
2010,08,30,14,25,4.80
2010,08,30,14,26,1.90
2010,08,30,14,27,4.10
2010,08,30,14,28,1.90
2010,08,30,14,29,3.00
2010,08,30,14,30,4.20
2010,08,30,14,31,5.20
2010,08,30,14,32,3.30
2010,08,30,14,33,4.90
2010,08,30,14,34,3.90
2010,08,30,14,35,1.80
2010,08,30,14,36,5.20
2010,08,30,14,37,1.80
2010,08,30,14,38,3.00
2010,08,30,14,39,5.80
2010,08,30,14,40,1.50
2010,08,30,14,41,4.70
2010,08,30,14,42,3.60
2010,08,30,14,43,4.40
2010,08,30,14,44,3.80
2010,08,30,14,45,4.90
2010,08,30,14,46,3.60
2010,08,30,14,47,4.80
2010,08,30,14,48,3.70
2010,08,30,14,49,5.10
2010,08,30,14,50,0.60
2010,08,30,14,51,2.00
2010,08,30,14,52,1.90
2010,08,30,14,53,4.80
2010,08,30,14,54,4.10
2010,08,30,14,55,4.70
2010,08,30,14,56,2.50
2010,08,30,14,57,1.90
2010,08,30,14,58,1.90
2010,08,30,14,59,2.10
2010,08,30,15,00,2.30
2010,08,30,15,01,1.40
2010,08,30,15,02,2.30
2010,08,30,15,03,4.70
2010,08,30,15,04,3.30
2010,08,30,15,05,4.40
2010,08,30,15,06,2.60
2010,08,30,15,07,3.10
2010,08,30,15,08,2.70
2010,08,30,15,09,0.40
2010,08,30,15,10,4.30
2010,08,30,15,11,3.70
2010,08,30,15,12,1.50
2010,08,30,15,13,1.00
2010,08,30,15,14,1.60
2010,08,30,15,15,0.90
2010,08,30,15,16,3.00
2010,08,30,15,17,2.20
2010,08,30,15,18,1.10
2010,08,30,15,19,4.90
2010,08,30,15,20,3.10
2010,08,30,15,21,5.70
2010,08,30,15,22,4.50
2010,08,30,15,23,3.20
2010,08,30,15,24,2.70
2010,08,30,15,25,3.00
2010,08,30,15,26,2.80
2010,08,30,15,27,3.90
2010,08,30,15,28,5.90
2010,08,30,15,29,3.20
2010,08,30,15,30,1.50
2010,08,30,15,31,3.50
2010,08,30,15,32,5.90
2010,08,30,15,33,5.30
2010,08,30,15,34,2.40
2010,08,30,15,35,6.20
2010,08,30,15,36,2.70
2010,08,30,15,37,3.40
2010,08,30,15,38,3.30
2010,08,30,15,39,4.10
2010,08,30,15,40,5.60
2010,08,30,15,41,4.80
2010,08,30,15,42,2.50
2010,08,30,15,43,2.20
2010,08,30,15,44,4.20
2010,08,30,15,45,3.30
2010,08,30,15,46,1.00
2010,08,30,15,47,1.50
2010,08,30,15,48,2.20
2010,08,30,15,49,2.70
2010,08,30,15,50,0.60
2010,08,30,15,51,2.30
2010,08,30,15,52,1.00
2010,08,30,15,53,1.90
2010,08,30,15,54,0.50
2010,08,30,15,55,0.30
2010,08,30,15,56,0.10
2010,08,30,15,57,0.30
2010,08,30,15,58,1.20
2010,08,30,15,59,0.40
2010,08,30,16,00,0.00
2010,08,30,16,01,0.40
2010,08,30,16,02,0.30
2010,08,30,16,03,1.30
2010,08,30,16,04,2.40
2010,08,30,16,05,0.90
2010,08,30,16,06,0.10
2010,08,30,16,07,0.50
2010,08,30,16,08,0.00
2010,08,30,16,09,1.90
2010,08,30,16,10,2.40
2010,08,30,16,11,1.20
2010,08,30,16,12,2.20
2010,08,30,16,13,2.50
2010,08,30,16,14,4.00
2010,08,30,16,15,4.70
2010,08,30,16,16,3.00
2010,08,30,16,17,5.30
2010,08,30,16,18,4.70
2010,08,30,16,19,7.50
2010,08,30,16,20,7.30
2010,08,30,16,21,7.40
2010,08,30,16,22,5.90
2010,08,30,16,23,6.60
2010,08,30,16,24,4.80
2010,08,30,16,25,3.20
2010,08,30,16,26,2.90
2010,08,30,16,27,3.10
2010,08,30,16,28,1.90
2010,08,30,16,29,4.00
2010,08,30,16,30,3.80
2010,08,30,16,31,5.90
2010,08,30,16,32,4.80
2010,08,30,16,33,0.90
2010,08,30,16,34,1.80
2010,08,30,16,35,1.10
2010,08,30,16,36,2.20
2010,08,30,16,37,4.10
2010,08,30,16,38,3.60
2010,08,30,16,39,3.20
2010,08,30,16,40,4.70
2010,08,30,16,41,6.30
2010,08,30,16,42,5.90
2010,08,30,16,43,4.40
2010,08,30,16,44,1.20
2010,08,30,16,45,0.60
2010,08,30,16,46,0.30
2010,08,30,16,47,0.20
2010,08,30,16,48,0.20
2010,08,30,16,49,0.30
2010,08,30,16,50,0.00
2010,08,30,16,51,0.20
2010,08,30,16,52,0.00
2010,08,30,16,53,0.00
2010,08,30,16,54,0.00
2010,08,30,16,55,0.90
2010,08,30,16,56,1.10
2010,08,30,16,57,1.60
2010,08,30,16,58,0.60
2010,08,30,16,59,1.90
2010,08,30,17,00,2.40
2010,08,30,17,01,0.80
2010,08,30,17,02,0.90
2010,08,30,17,03,1.20
2010,08,30,17,04,0.40
2010,08,30,17,05,0.00
2010,08,30,17,06,0.60
2010,08,30,17,07,5.30
2010,08,30,17,08,3.60
2010,08,30,17,09,5.00
2010,08,30,17,10,1.20
2010,08,30,17,11,0.70
2010,08,30,17,12,0.60
2010,08,30,17,13,0.70
2010,08,30,17,14,0.70
2010,08,30,17,15,1.20
2010,08,30,17,16,0.30
2010,08,30,17,17,0.10
2010,08,30,17,18,0.00
2010,08,30,17,19,1.20
2010,08,30,17,20,5.10
2010,08,30,17,21,7.00
2010,08,30,17,22,6.50
2010,08,30,17,23,5.90
2010,08,30,17,24,4.00
2010,08,30,17,25,5.80
2010,08,30,17,26,5.20
2010,08,30,17,27,3.10
2010,08,30,17,28,3.20
2010,08,30,17,29,5.00
2010,08,30,17,30,3.00
2010,08,30,17,31,3.50
2010,08,30,17,32,4.40
2010,08,30,17,33,2.00
2010,08,30,17,34,1.50
2010,08,30,17,35,2.80
2010,08,30,17,36,2.20
2010,08,30,17,37,0.30
2010,08,30,17,38,0.00
2010,08,30,17,39,0.90
2010,08,30,17,40,2.10
2010,08,30,17,41,5.80
2010,08,30,17,42,5.20
2010,08,30,17,43,2.50
2010,08,30,17,44,0.30
2010,08,30,17,45,0.50
2010,08,30,17,46,0.00
2010,08,30,17,47,0.40
2010,08,30,17,48,0.30
2010,08,30,17,49,1.40
2010,08,30,17,50,0.00
2010,08,30,17,51,0.70
2010,08,30,17,52,0.80
2010,08,30,17,53,0.10
2010,08,30,17,54,0.00
2010,08,30,17,55,0.00
2010,08,30,17,56,0.00
2010,08,30,17,57,0.00
2010,08,30,17,58,0.20
2010,08,30,17,59,0.20
2010,08,30,18,00,0.90
2010,08,30,18,01,0.10
2010,08,30,18,02,0.10
2010,08,30,18,03,0.00
2010,08,30,18,04,0.00
2010,08,30,18,05,0.00
2010,08,30,18,06,0.00